Weather reports worldwide

Advertisment
Bologna/Borgo Panigale, Italy (16140): temperature & dewpoint: 10.11.2018 05:00:00 - 16.11.2018 05:00:00 (CET)Bologna/Borgo Panigale, Italy (16140): wind speed: 10.11.2018 05:00:00 - 16.11.2018 05:00:00 (CET)Bologna/Borgo Panigale, Italy (16140): wind direction: 10.11.2018 05:00:00 - 16.11.2018 05:00:00 (CET)Bologna/Borgo Panigale, Italy (16140): reduced air pressure: 10.11.2018 05:00:00 - 16.11.2018 05:00:00 (CET)Bologna/Borgo Panigale, Italy (16140): visibility: 10.11.2018 05:00:00 - 16.11.2018 05:00:00 (CET)Bologna/Borgo Panigale, Italy (16140): precipitation: 10.11.2018 05:00:00 - 16.11.2018 05:00:00 (CET)
Date & Time tt [°C] td [°C] ff [km/h] ff [kn] dd ppp [hPa] vv [km] rr [mm]
16.11.2018 05:00:00 7,0 7,0 5 3 W - 2,0 -
16.11.2018 04:00:00 7,3 6,9 8 4 WSW 1025,4 3,0 0,0
16.11.2018 03:00:00 7,0 7,0 2 1 - - 3,0 -
16.11.2018 02:00:00 8,0 7,0 2 1 WSW - 4,0 -
16.11.2018 01:00:00 8,6 7,7 2 1 - 1025,0 4,0 -
16.11.2018 00:00:00 9,0 8,0 4 2 SW - 5 -
15.11.2018 23:00:00 8,0 7,0 8 4 WSW - 5 -
15.11.2018 22:00:00 8,3 7,5 5 3 SW 1024,8 5 0,0
15.11.2018 21:00:00 9,0 8,0 5 3 W - 4,0 -
15.11.2018 20:00:00 10,0 9,0 4 2 - - 4,0 -
15.11.2018 19:00:00 10,6 9,6 4 2 - 1024,6 4,0 -
15.11.2018 18:00:00 12,0 10,0 8 4 W - 4,0 -
15.11.2018 17:00:00 13,0 10,0 9 5 W - 4,5 -
15.11.2018 16:00:00 13,1 10,6 9 5 W 1025,0 4,0 0,0
15.11.2018 15:00:00 13,0 11,0 5 3 WNW - 4,0 -
15.11.2018 14:00:00 13,0 11,0 8 4 W - 3,5 -
15.11.2018 13:00:00 11,9 11,5 9 5 W 1026,2 1,6 -
15.11.2018 12:00:00 11,0 11,0 11 6 W - 0,5 -
15.11.2018 11:00:00 11,0 11,0 9 5 W - 0,5 -
15.11.2018 10:00:00 11,0 10,8 9 5 W 1027,0 0,5 0,0
15.11.2018 09:00:00 11,0 10,0 8 4 WNW - 0,2 -
15.11.2018 08:00:00 10,0 10,0 9 5 WSW - 0,3 -
15.11.2018 07:00:00 10,4 10,2 5 3 WSW 1026,9 0,2 -
15.11.2018 06:00:00 10,0 10,0 9 5 WSW - 0,2 -
15.11.2018 05:00:00 - - - - - - - -
15.11.2018 04:00:00 9,8 9,5 11 6 W 1026,9 0,4 0,0
15.11.2018 03:00:00 10,0 10,0 11 6 W - 1,2 -
15.11.2018 02:00:00 10,0 9,0 9 5 WSW - 0,9 -
15.11.2018 01:00:00 8,9 8,2 4 2 WSW 1027,3 2,5 -
15.11.2018 00:00:00 9,0 9,0 5 3 W - 2,0 -
14.11.2018 23:00:00 10,0 9,0 8 4 SW - 2,5 -
14.11.2018 22:00:00 10,7 10,1 5 3 SW 1027,8 2,5 0,0
14.11.2018 21:00:00 12,0 11,0 8 4 SW - 3,0 -
14.11.2018 20:00:00 11,0 11,0 4 2 SW - 3,0 -
14.11.2018 19:00:00 12,6 11,4 5 3 SW 1027,3 3,0 -
14.11.2018 18:00:00 14,0 12,0 4 2 W - 3,0 -
14.11.2018 17:00:00 14,0 12,0 4 2 - - 3,5 -
14.11.2018 16:00:00 15,2 12,0 8 4 NW 1027,4 4,0 0,0
14.11.2018 15:00:00 15,0 12,0 5 3 WNW - 4,0 -
14.11.2018 14:00:00 15,0 13,0 9 5 WNW - 3,0 -
14.11.2018 13:00:00 14,8 13,0 8 4 WNW 1028,7 3,0 -
14.11.2018 12:00:00 14,0 13,0 8 4 W - 2,5 -
14.11.2018 11:00:00 14,0 13,0 5 3 WNW - 0,9 -
14.11.2018 10:00:00 13,2 13,0 8 4 WNW 1029,6 0,2 0,0
14.11.2018 09:00:00 13,0 13,0 8 4 WNW - 3,0 -
14.11.2018 08:00:00 13,0 12,0 8 4 W - 5 -
14.11.2018 07:00:00 13,2 11,3 8 4 WSW 1028,4 6 -
14.11.2018 06:00:00 13,0 11,0 5 3 WSW - 7 -
14.11.2018 05:00:00 13,0 11,0 2 1 W - 8 -
14.11.2018 04:00:00 13,2 10,9 8 4 SW 1028,0 8 0,0
14.11.2018 03:00:00 13,0 11,0 9 5 SW - 8 -
14.11.2018 02:00:00 13,0 11,0 5 3 SW - 8 -
14.11.2018 01:00:00 13,0 10,9 8 4 SSW 1028,4 8 -
14.11.2018 00:00:00 13,0 11,0 9 5 SSW - 8 -
13.11.2018 23:00:00 13,0 11,0 9 5 SSW - 8 -
13.11.2018 22:00:00 12,8 11,2 4 2 SW 1028,6 8 0,0
13.11.2018 21:00:00 13,0 11,0 5 3 SSW - 8 -
13.11.2018 20:00:00 13,0 12,0 8 4 WSW - 8 -
13.11.2018 19:00:00 13,9 12,8 2 1 N 1027,6 8 -
13.11.2018 18:00:00 15,0 13,0 4 2 N - 10 -
13.11.2018 17:00:00 17,0 12,0 4 2 - - 10 -
13.11.2018 16:00:00 18,0 12,0 5 3 NE - 10 -
13.11.2018 15:00:00 19,0 13,0 8 4 N - 10 -
13.11.2018 14:00:00 19,0 13,0 2 1 - - 10 -
13.11.2018 13:00:00 18,4 12,1 5 3 - 1027,6 10 -
13.11.2018 12:00:00 18,0 12,0 4 2 - - 10 -
13.11.2018 11:00:00 16,0 11,0 2 1 - - 10 -
13.11.2018 10:00:00 14,1 9,9 9 5 S 1028,3 10 0,0
13.11.2018 09:00:00 11,0 10,0 11 6 SSW - 10 -
13.11.2018 08:00:00 11,0 9,0 11 6 SSW - 10 -
13.11.2018 07:00:00 10,9 9,6 9 5 S 1027,5 8 -
13.11.2018 06:00:00 12,0 10,0 11 6 SSW - 9 -
13.11.2018 05:00:00 12,0 11,0 5 3 SSW - 7 -
13.11.2018 04:00:00 13,2 11,1 9 5 SSW 1027,4 3,0 0,0
13.11.2018 03:00:00 14,0 12,0 9 5 SSW - 3,0 -
13.11.2018 02:00:00 14,0 12,0 8 4 WSW - 3,0 -
13.11.2018 01:00:00 14,4 12,1 8 4 SW 1027,7 3,0 -
13.11.2018 00:00:00 14,0 12,0 5 3 WNW - 3,0 -
12.11.2018 23:00:00 14,0 12,0 4 2 NW - 3,0 -
12.11.2018 22:00:00 14,3 12,5 2 1 WNW 1027,7 3,5 0,0
12.11.2018 21:00:00 14,0 13,0 2 1 - - 4,0 -
12.11.2018 20:00:00 15,0 13,0 5 3 N - 4,0 -
12.11.2018 19:00:00 14,7 12,6 5 3 NNW 1027,3 4,0 -
12.11.2018 18:00:00 15,0 13,0 5 3 NNW - 5 -
12.11.2018 17:00:00 15,0 13,0 4 2 N - 5 -
12.11.2018 16:00:00 15,7 12,4 5 3 N 1026,5 5 0,0
12.11.2018 15:00:00 16,0 12,0 5 3 NNW - 5 -
12.11.2018 14:00:00 16,0 12,0 5 3 NNW - 5 -
12.11.2018 13:00:00 15,8 12,3 4 2 - 1026,6 4,5 -
12.11.2018 12:00:00 15,0 12,0 2 1 - - 4,0 -
12.11.2018 11:00:00 15,0 13,0 4 2 - - 3,0 -
12.11.2018 10:00:00 13,6 12,1 8 4 SSW 1026,8 4,5 0,0
12.11.2018 09:00:00 13,0 12,0 5 3 SSW - 3,0 -
12.11.2018 08:00:00 13,0 12,0 5 3 SSW - 2,5 -
12.11.2018 07:00:00 12,4 11,9 8 4 SW 1025,5 2,0 -
12.11.2018 06:00:00 12,0 11,0 5 3 SW - 5 -
12.11.2018 05:00:00 11,0 11,0 5 3 S - 3,0 -
12.11.2018 04:00:00 11,1 10,7 4 2 S 1024,7 3,0 0,0
12.11.2018 03:00:00 11,0 11,0 4 2 S - 2,0 -
12.11.2018 02:00:00 12,0 11,0 2 1 - - 1,5 -
12.11.2018 01:00:00 10,9 10,3 4 2 SE 1024,3 1,5 -
12.11.2018 00:00:00 13,0 13,0 0 0 N - 1,8 -
11.11.2018 23:00:00 14,0 13,0 2 1 - - 3,0 -
11.11.2018 22:00:00 14,5 13,3 5 3 W 1023,8 3,0 0,0
11.11.2018 21:00:00 15,0 13,0 8 4 W - 4,0 -
11.11.2018 20:00:00 15,0 13,0 9 5 W - 4,0 -
11.11.2018 19:00:00 15,0 12,9 9 5 W 1022,9 4,5 -
11.11.2018 18:00:00 15,0 13,0 8 4 W - 4,5 -
11.11.2018 17:00:00 15,0 13,0 5 3 W - 5 -
11.11.2018 16:00:00 16,3 13,3 8 4 W 1021,3 7 0,0
11.11.2018 15:00:00 16,0 13,0 5 3 W - 7 -
11.11.2018 14:00:00 16,0 13,0 5 3 WNW - 7 -
11.11.2018 13:00:00 16,7 12,9 4 2 - 1020,7 7 -
11.11.2018 12:00:00 16,0 13,0 9 5 N - 6 -
11.11.2018 11:00:00 15,0 13,0 8 4 NE - 6 -
11.11.2018 10:00:00 14,6 12,3 13 7 E 1019,5 5 0,0
11.11.2018 09:00:00 13,0 12,0 8 4 ENE - 3,5 -
11.11.2018 08:00:00 11,0 10,0 4 2 - - 4,0 -
11.11.2018 07:00:00 11,4 10,5 5 3 W 1018,4 5 -
11.11.2018 06:00:00 13,0 12,0 4 2 - - 5 -
11.11.2018 05:00:00 - - - - - - - -
11.11.2018 04:00:00 12,3 11,5 9 5 ESE 1017,0 5 0,0
11.11.2018 03:00:00 13,0 12,0 9 5 E - 5 -
11.11.2018 02:00:00 - - - - - - - -
11.11.2018 01:00:00 12,9 11,8 13 7 ESE 1017,0 6 -
11.11.2018 00:00:00 12,0 11,0 9 5 E - 4,0 -
10.11.2018 23:00:00 13,0 12,0 5 3 ENE - 4,0 -
10.11.2018 22:00:00 13,1 12,1 8 4 E 1017,1 5 0,0
10.11.2018 21:00:00 14,0 12,0 9 5 E - 6 -
10.11.2018 20:00:00 14,0 12,0 8 4 ENE - 7 -
10.11.2018 19:00:00 13,8 12,2 4 2 ENE 1016,9 7 -
10.11.2018 18:00:00 14,0 12,0 5 3 ENE - 7 -
10.11.2018 17:00:00 14,0 12,0 5 3 E - 7 -
10.11.2018 16:00:00 14,3 11,6 5 3 ENE 1016,1 7 0,0
10.11.2018 15:00:00 14,0 11,0 5 3 ENE - 7 -
10.11.2018 14:00:00 14,0 11,0 8 4 ESE - 7 -
10.11.2018 13:00:00 13,1 11,0 9 5 E 1016,7 5 -
10.11.2018 12:00:00 13,0 11,0 5 3 - - 6 -
10.11.2018 11:00:00 13,0 10,0 4 2 - - 5 -
10.11.2018 10:00:00 11,7 10,1 8 4 SSW 1017,9 4,5 0,0
10.11.2018 09:00:00 11,0 10,0 8 4 SSW - 4,0 -
10.11.2018 08:00:00 11,0 10,0 8 4 SSW - 4,0 -
10.11.2018 07:00:00 10,8 9,6 8 4 SSW 1017,5 4,0 -
10.11.2018 06:00:00 11,0 10,0 5 3 SSW - 3,5 -
10.11.2018 05:00:00 11,0 10,0 8 4 SSW - 3,0 -

tt = temperature
td = dewpoint
ff = wind speed
dd = wind direction
ppp = reduced air pressure
vv = visibility
rr = precipitation

Next stations